Location: Devore Heights
(34.2372°N, 117.4156°W)
Time: 08:32:26
(UTC+00:00)

Vanguard 1 Rocket - Pass Details

Date: 13 September 2024
Orbit: 650 x 4218 km, 34.3° (Epoch: 09 October)

Event Time Altitude Azimuth Distance (km) Brightness Sun altitude
Rises 12:25:30 0° 251° (WSW) 5,720 - -14.3°
Reaches altitude 10° 12:28:31 10° 250° (WSW) 5,076 - -13.7°
Exits shadow 12:29:58 15° 250° (WSW) 4,794 10.4 -13.5°
Maximum altitude 12:45:23 84° 165° (SSE) 3,631 10.4 -10.3°
Drops below altitude 10° 13:11:57 10° 82° (E) 7,388 14.0 -4.9°
Sets 13:17:33 0° 82° (E) 8,291 15.7 -3.8°
